User: anonymous   Login
Location: Unspecified
(0.0000°N, 0.0000°E)
Time: 06:19:21
(UTC+00:00)
Language:

Oscar 19 - Orbit

View from above orbital plane
View from above orbital plane
View from above satellite
View from above satellite

Ground track
Ground track

The orbit data is extracted from the following two-line orbital elements,

1 20442U 90005G   18175.40490746 -.00000003 +00000-0 +15177-4 0  9991
2 20442 098.6104 113.8523 0012678 125.5299 234.7069 14.32898624484927
Epoch (UTC): 24 June 2018 09:43:04
Eccentricity: 0.0012678
inclination: 98.6104°
perigee height: 773 km
apogee height: 791 km
right ascension of ascending node: 113.8523°
argument of perigee: 125.5299°
revolutions per day: 14.32898624
mean anomaly at epoch: 234.7069°
orbit number at epoch: 48492

The dashed part of the orbit path shows where the satellite is in the earth's shadow,  

DLR